Lapse_Rate
0.1 1.6 3.1 4.4 5.9 6.5 5.7 4.3 4.6 4.7 4.0 4.0 4.2 4.3 4.4 4.8 5.0 5.3 5.3 5.6 6.3 6.7
1.6 2.2 4.5 5.2 5.7 6.2 4.9 4.1 4.7 5.2 4.4 4.0 4.1 4.6 4.8 5.1 5.3 5.4 6.0 6.0 6.0 6.4
1.5 2.3 4.7 5.1 5.3 4.7 4.1 3.8 3.8 4.1 4.1 4.5 4.7 4.9 5.1 5.4 5.5 6.1 6.3 6.6 6.7 6.6
1.1 2.6 3.9 4.0 3.9 3.3 2.9 2.6 2.2 3.0 3.6 4.1 4.5 4.9 5.1 5.6 5.9 6.1 6.6 6.7 6.7 6.6
1.0 2.5 2.8 2.6 2.8 3.0 3.4 3.5 2.4 3.2 3.3 3.7 4.0 4.2 4.3 4.8 5.8 5.9 6.2 6.6 6.4 6.7
0.8 1.5 3.3 2.9 3.0 3.3 4.1 3.8 4.1 3.8 3.6 3.4 3.6 3.7 3.8 4.0 4.6 4.9 5.1 5.6 6.2 6.3
-0.3 0.8 2.4 3.8 4.2 4.4 4.2 4.2 3.6 3.4 3.7 3.3 3.6 3.0 2.5 2.9 3.6 3.8 4.2 4.1 4.6 5.0
-1.0 0.1 1.3 3.1 4.2 4.0 4.0 3.6 3.6 3.1 2.9 3.2 4.0 3.5 3.1 3.1 2.9 2.9 2.9 3.4 3.4 3.3
-1.2 -0.6 -0.1 0.7 2.1 3.2 3.1 3.0 2.8 2.5 2.4 2.5 3.3 3.3 3.2 3.3 2.6 2.4 2.5 2.3 2.6 2.7
-1.0 -0.7 -0.2 0.3 0.8 1.3 1.9 1.9 1.7 2.1 2.5 2.3 2.5 3.6 3.2 3.3 2.8 2.2 2.3 3.2 3.4 3.2
-1.3 -1.1 -0.6 -0.4 -0.2 0.2 1.0 1.4 1.7 1.4 1.6 1.6 3.4 3.8 4.4 4.3 2.2 1.6 1.6 3.1 3.3 3.7
-1.9 -1.8 -1.6 -1.3 -1.3 -0.6 -0.1 0.4 0.9 1.2 0.4 0.3 2.5 4.7 5.5 4.7 3.4 3.1 2.3 1.9 1.4 1.5
-2.3 -1.9 -2.2 -2.5 -2.4 -1.7 -1.3 -0.5 -0.4 -0.3 -0.3 1.5 0.9 4.3 5.8 5.1 4.4 4.0 3.3 2.9 2.6 2.5
-2.3 -2.7 -2.7 -2.8 -2.3 -2.2 -1.6 -1.1 -1.2 -0.5 -0.2 0.7 1.8 3.2 5.9 5.3 4.2 3.8 3.1 2.6 2.5 2.6
Wind_Speed
8 7 7 9 9 9 9 10 12 11 8 8 8 7 7 6 7 8 9 13 12 10
9 10 10 11 11 9 11 10 11 11 9 8 8 8 7 6 7 8 9 11 11 10
11 10 10 9 12 11 10 10 10 11 10 9 8 8 7 7 8 9 8 9 11 11
10 10 9 9 10 10 10 9 9 10 10 9 9 8 7 9 10 9 11 11 12 14
10 10 10 10 10 10 11 11 9 10 9 9 10 9 8 9 10 10 11 12 12 14
9 10 11 11 11 10 10 8 9 11 11 9 8 6 6 8 9 10 11 12 14 13
7 9 10 11 10 10 9 9 9 9 10 10 7 5 6 6 8 9 11 12 11 9
6 7 8 10 11 10 9 8 8 9 9 9 7 6 8 9 9 9 12 9 7 7
6 6 7 7 8 10 9 9 9 8 9 9 7 16 19 15 10 11 10 9 6 5
6 6 7 7 6 7 8 8 8 9 9 9 8 16 21 21 10 10 8 8 7 6
5 6 6 6 6 6 4 5 6 7 8 9 8 19 23 22 12 10 8 7 4 4
4 5 6 7 7 5 4 4 5 5 6 8 9 20 23 18 10 7 2 4 5 4
3 4 6 5 6 4 4 4 4 5 4 10 8 18 22 17 7 6 5 7 8 16
4 3 3 4 3 4 5 5 5 5 5 6 9 11 21 20 7 5 5 6 6 6
Wind_Direction
308 302 294 301 297 297 293 292 295 287 267 256 246 235 234 239 239 241 240 241 241 249
305 300 306 306 297 290 291 291 291 289 268 261 253 248 243 242 242 237 240 244 242 240
301 296 303 302 292 286 282 283 294 293 277 270 260 252 247 251 248 242 246 244 241 240
302 302 309 307 299 294 294 296 286 286 280 271 265 258 253 254 254 251 252 246 242 239
306 315 317 316 312 315 303 301 285 286 275 266 258 251 242 253 261 256 253 252 249 246
313 325 323 323 320 323 333 322 332 328 315 289 267 260 253 245 257 260 261 263 258 247
318 320 319 321 322 326 335 337 342 338 328 335 331 9 351 328 299 285 277 270 249 236
309 314 318 329 332 332 335 340 342 345 339 341 333 359 337 315 302 293 290 283 262 246
314 314 316 326 334 341 344 346 347 352 344 340 337 328 332 325 306 294 287 295 299 287
317 321 323 324 332 341 343 345 349 345 344 337 329 331 329 323 303 290 281 285 295 304
319 318 321 321 331 327 323 334 339 337 337 330 330 335 332 328 307 280 266 266 284 282
312 321 325 330 329 320 330 326 334 334 335 329 327 337 339 343 318 291 360 27 22 26
302 317 317 318 317 306 311 314 328 327 330 340 331 343 360 4 357 24 34 36 38 36
245 265 277 313 308 322 330 334 342 340 337 339 351 348 3 16 19 27 34 26 23 29